Change the Weather History Date:

Saturday, November 24, 2012

  Actual Average Record
Temperature  
Mean Temperature 56 °F -  
Max Temperature 69 °F 75 °F 86 °F (2014)
Min Temperature 44 °F 52 °F 59 °F (2013)
Degree Days  
Heating Degree Days 8    
Growing Degree Days 6 (Base 50)    
Moisture  
Dew Point 47 °F    
Average Humidity 77    
Maximum Humidity 100    
Minimum Humidity 46    
Precipitation  
Precipitation 0.00 in - - ()
Sea Level Pressure  
Sea Level Pressure 30.08 in    
Wind  
Wind Speed 2 mph ()    
Max Wind Speed 14 mph    
Max Gust Speed 18 mph    
Visibility 7.5 miles    
Events      
Averages and records for this station are not official NWS values.
T = Trace of Precipitation, MM = Missing Value Source: Averaged Metar Reports

Daily Weather History Graph

Daily Weather History Graph

Search for Another Location

Airport or City:

Trip Planner

Search our weather history database for the weather conditions in past years. The results will help you decide how hot, cold, wet, or windy it might be!

Date:

Astronomy

Nov. 24, 2012 Rise Set
Actual Time 6:56 AM EST 5:27 PM EST
Civil Twilight 6:30 AM EST 5:53 PM EST
Nautical Twilight 6:01 AM EST 6:22 PM EST
Astronomical Twilight 5:33 AM EST 6:50 PM EST
Moon 3:00 PM EST (11/24) 3:25 AM EST (11/24)
Length of Visible Light 11h 22m
Length of Day
10h 31m
Waxing Gibbous, 87% of the Moon is Illuminated
Nov 24
Waxing Gibbous
Nov 28
Full
Dec 6
Last Quarter
Dec 13
New
Dec 20
First Quarter

Hourly Weather History & Observations

Time (EST) Temp. Dew Point Humidity Pressure Visibility Wind Dir Wind Speed Gust Speed Precip Events Conditions
12:15 AM 48.2 °F 44.6 °F 87% 30.09 in 8.0 mi Calm Calm - N/A   Clear
12:35 AM 46.4 °F 44.6 °F 93% 30.09 in 8.0 mi Calm Calm - N/A   Clear
12:55 AM 46.4 °F 44.6 °F 93% 30.09 in 8.0 mi Calm Calm - N/A   Clear
1:15 AM 46.4 °F 44.6 °F 93% 30.09 in 9.0 mi Calm Calm - N/A   Clear
1:35 AM 46.4 °F 44.6 °F 93% 30.08 in 7.0 mi Calm Calm - N/A   Clear
1:55 AM 48.2 °F 46.4 °F 93% 30.08 in 7.0 mi Calm Calm - N/A   Clear
2:15 AM 48.2 °F 46.4 °F 93% 30.08 in 6.0 mi Calm Calm - N/A   Clear
2:55 AM 48.2 °F 46.4 °F 93% 30.07 in 5.0 mi Calm Calm - N/A   Clear
3:15 AM 46.4 °F 46.4 °F 100% 30.06 in 6.0 mi Calm Calm - N/A   Clear
3:35 AM 48.2 °F 46.4 °F 93% 30.06 in 6.0 mi Calm Calm - N/A   Clear
3:55 AM 48.2 °F 46.4 °F 93% 30.05 in 5.0 mi Calm Calm - N/A   Clear
4:15 AM 46.4 °F 44.6 °F 93% 30.05 in 3.0 mi Calm Calm - N/A   Clear
4:35 AM 46.4 °F 46.4 °F 100% 30.06 in 3.0 mi Calm Calm - N/A   Clear
4:55 AM 46.4 °F 44.6 °F 93% 30.06 in 3.0 mi Calm Calm - N/A   Clear
5:15 AM 46.4 °F 44.6 °F 93% 30.06 in 3.0 mi Calm Calm - N/A   Clear
5:35 AM 46.4 °F 46.4 °F 100% 30.06 in 3.0 mi Calm Calm - N/A   Clear
5:55 AM 46.4 °F 46.4 °F 100% 30.07 in 3.0 mi Calm Calm - N/A   Clear
6:15 AM 46.4 °F 46.4 °F 100% 30.07 in 2.0 mi Calm Calm - N/A   Clear
6:35 AM 46.4 °F 46.4 °F 100% 30.08 in 2.5 mi Calm Calm - N/A   Clear
7:15 AM 46.4 °F 46.4 °F 100% 30.09 in 3.0 mi Calm Calm - N/A   Clear
7:35 AM 48.2 °F 48.2 °F 100% 30.10 in 4.0 mi Calm Calm - N/A   Clear
7:55 AM 53.6 °F 53.6 °F 100% 30.10 in 4.0 mi Calm Calm - N/A   Clear
8:15 AM 55.4 °F 53.6 °F 94% 30.10 in 5.0 mi Calm Calm - N/A   Clear
8:35 AM 57.2 °F 55.4 °F 94% 30.10 in 7.0 mi NW 6.9 mph - N/A   Clear
8:55 AM 59.0 °F 53.6 °F 82% 30.11 in 8.0 mi NNW 6.9 mph - N/A   Clear
9:15 AM 60.8 °F 50.0 °F 68% 30.12 in 9.0 mi NNW 11.5 mph 18.4 mph N/A   Clear
9:35 AM 60.8 °F 48.2 °F 63% 30.13 in 9.0 mi North 13.8 mph 18.4 mph N/A   Clear
9:55 AM 62.6 °F 48.2 °F 59% 30.13 in 9.0 mi North 10.4 mph - N/A   Clear
10:15 AM 62.6 °F 48.2 °F 59% 30.13 in 9.0 mi North 11.5 mph - N/A   Clear
10:35 AM 62.6 °F 48.2 °F 59% 30.12 in 10.0 mi North 8.1 mph - N/A   Clear
10:55 AM 64.4 °F 48.2 °F 56% 30.12 in 9.0 mi NW 9.2 mph - N/A   Clear
11:15 AM 64.4 °F 48.2 °F 56% 30.11 in 9.0 mi NW 8.1 mph - N/A   Clear
11:35 AM 64.4 °F 48.2 °F 56% 30.09 in 10.0 mi North 6.9 mph - N/A   Clear
11:55 AM 66.2 °F 48.2 °F 52% 30.08 in 9.0 mi NNW 8.1 mph - N/A   Clear
12:15 PM 66.2 °F 50.0 °F 56% 30.06 in 9.0 mi Calm Calm - N/A   Clear
12:35 PM 68.0 °F 50.0 °F 52% 30.06 in 9.0 mi Calm Calm - N/A   Clear
12:55 PM 69.8 °F 51.8 °F 53% 30.05 in 9.0 mi NW 4.6 mph - N/A   Clear
1:15 PM 69.8 °F 51.8 °F 53% 30.04 in 9.0 mi WNW 10.4 mph - N/A   Clear
1:35 PM 69.8 °F 51.8 °F 53% 30.03 in 10.0 mi WNW 9.2 mph - N/A   Clear
1:55 PM 69.8 °F 50.0 °F 49% 30.03 in 9.0 mi West 6.9 mph - N/A   Clear
2:15 PM 68.0 °F 50.0 °F 52% 30.03 in 9.0 mi WNW 4.6 mph - N/A   Clear
2:35 PM 69.8 °F 51.8 °F 53% 30.02 in 9.0 mi WNW 8.1 mph - N/A   Clear
2:55 PM 69.8 °F 50.0 °F 49% 30.02 in 9.0 mi WNW 8.1 mph - N/A   Clear
3:15 PM 69.8 °F 48.2 °F 46% 30.02 in 10.0 mi NW 11.5 mph - N/A   Clear
3:35 PM 69.8 °F 48.2 °F 46% 30.02 in 9.0 mi WNW 6.9 mph - N/A   Clear
3:55 PM 68.0 °F 48.2 °F 49% 30.02 in 10.0 mi WNW 4.6 mph - N/A   Clear
4:15 PM 68.0 °F 48.2 °F 49% 30.02 in 9.0 mi Calm Calm - N/A   Clear
4:35 PM 66.2 °F 50.0 °F 56% 30.03 in 8.0 mi NNW 5.8 mph - N/A   Clear
4:55 PM 64.4 °F 48.2 °F 56% 30.03 in 10.0 mi NW 4.6 mph - N/A   Clear
5:15 PM 64.4 °F 46.4 °F 52% 30.03 in 9.0 mi NNW 6.9 mph - N/A   Clear
5:55 PM 60.8 °F 46.4 °F 59% 30.05 in 10.0 mi Calm Calm - N/A   Clear
6:15 PM 57.2 °F 46.4 °F 67% 30.05 in 9.0 mi Calm Calm - N/A   Clear
6:35 PM 57.2 °F 48.2 °F 72% 30.06 in 10.0 mi Calm Calm - N/A   Clear
6:55 PM 55.4 °F 46.4 °F 72% 30.07 in 9.0 mi Calm Calm - N/A   Clear
7:15 PM 51.8 °F 46.4 °F 82% 30.08 in 10.0 mi Calm Calm - N/A   Clear
7:35 PM 51.8 °F 46.4 °F 82% 30.08 in 8.0 mi Calm Calm - N/A   Clear
7:55 PM 51.8 °F 44.6 °F 76% 30.09 in 9.0 mi Calm Calm - N/A   Clear
8:15 PM 48.2 °F 44.6 °F 87% 30.09 in 8.0 mi Calm Calm - N/A   Clear
8:55 PM 48.2 °F 44.6 °F 87% 30.10 in 8.0 mi Calm Calm - N/A   Clear
9:15 PM 48.2 °F 44.6 °F 87% 30.11 in 8.0 mi Calm Calm - N/A   Clear
9:35 PM 48.2 °F 44.6 °F 87% 30.11 in 7.0 mi Calm Calm - N/A   Clear
9:55 PM 46.4 °F 44.6 °F 93% 30.11 in 7.0 mi Calm Calm - N/A   Clear
10:15 PM 46.4 °F 44.6 °F 93% 30.11 in 8.0 mi Calm Calm - N/A   Clear
10:55 PM 46.4 °F 42.8 °F 87% 30.12 in 8.0 mi Calm Calm - N/A   Clear
11:15 PM 44.6 °F 42.8 °F 93% 30.12 in 8.0 mi Calm Calm - N/A   Clear
11:35 PM 44.6 °F 42.8 °F 93% 30.12 in 7.0 mi Calm Calm - N/A   Clear
11:55 PM 44.6 °F 41.0 °F 87% 30.12 in 8.0 mi Calm Calm - N/A   Clear